Home > Time Zones > World Clock > Weather > Italy > Turin > Past weeks

Flag for Italy Weather past 2 weeks in Turin, Italy

Now
63 °F

Passing clouds.


Feels Like: 63 °F
Forecast: 54 / 73 °F
Wind: 6 mph from Northeast

Location: Torino / Bric Della Croce

Current Time: Sep 3, 2015 at 6:46:44 AM

Latest Report: Sep 3, 2015 at 5:55 AM


Visibility: N/A

Pressure: 29.92 "Hg

Humidity: 100%

Dew point: 63 °F

Location of TurinLocation

Historic Weather in Turin — Graph

°F

Turin temperature yesterday

Maximum temperature yesterday: 77 °F (at 4:55 PM)
Minimum temperature yesterday: 64 °F (at 11:55 PM)
Average temperature yesterday: 70 °F

Past Weeks' High & Low Weather Summary

 TemperatureHumidityPressure
High82 °F (Aug 31, 6:55 PM)100% (Aug 19, 4:55 AM)30.30 "Hg (Aug 19, 4:55 AM)
Low55 °F (Aug 23, 7:55 PM)32% (Aug 31, 6:55 PM)29.89 "Hg (Sep 2, 4:55 PM)
Average68 °F79%30.08 "Hg
* Reported Aug 19 4:55 AM — Sep 3 4:55 AM, Turin, Weather by CustomWeather, © 2015

Note: Actual official high and low records may vary slightly from our data, if they occured in-between our weather recording intervals... More about our weather records

Advertising

Turin weather history for previous 24 hours

 ConditionsComfort  
Time TempWeatherWind HumidityBarometerVisibility
4:55 AM
Thu, Sep 3
63 °FPassing clouds.9 mph100%29.92 "HgN/A
3:55 AM64 °FPassing clouds.7 mph100%29.89 "HgN/A
2:55 AM66 °FPassing clouds.6 mph100%29.89 "HgN/A
1:55 AM66 °FPassing clouds.No wind100%29.89 "HgN/A
12:55 AM66 °FPassing clouds.No wind100%29.89 "HgN/A
11:55 PM
Wed, Sep 2
64 °FClear.6 mph100%29.89 "Hg10 mi
10:55 PM68 °FClear.No wind100%29.89 "Hg10 mi
9:55 PM68 °FPassing clouds.9 mph100%29.89 "HgN/A
8:55 PM72 °FThunderstorms. Partly sunny.6 mph88%29.89 "HgN/A
7:55 PM73 °FThunderstorms. Scattered clouds.12 mph78%29.89 "HgN/A
6:55 PM77 °FScattered clouds.7 mph69%29.89 "HgN/A
5:55 PM77 °FScattered clouds.5 mph61%29.89 "HgN/A
4:55 PM77 °FScattered clouds.No wind61%29.89 "HgN/A
3:55 PM75 °FScattered clouds.No wind65%29.92 "HgN/A
2:55 PM75 °FPassing clouds.No wind65%29.92 "HgN/A
1:55 PM73 °FScattered clouds.No wind69%29.92 "HgN/A
12:55 PM72 °FScattered clouds.6 mph78%29.92 "HgN/A
11:55 AM70 °FPassing clouds.3 mph88%29.92 "HgN/A
10:55 AM70 °FSunny.No wind83%29.92 "Hg10 mi
9:55 AM68 °FSunny.No wind94%29.92 "Hg10 mi
8:55 AM68 °FSunny.No wind83%29.92 "Hg10 mi
7:55 AM66 °FPassing clouds.No wind83%29.92 "HgN/A
6:55 AM66 °FPassing clouds.No wind83%29.92 "HgN/A
Weather by CustomWeather, © 2015

See weather overviewHow to use our weather pages